Regional Weather Roundup
Issued by NWS

Home | Current Version | Previous Version | Text Only | Print | Product List | Glossary Off
Versions: 1 2 3 4 5 6 7 8 9 10 11 12 13 14 15 16 17 18 19 20 21 22 23 24 25 26 27 28 29 30 31 32 33 34 35 36 37 38 39 40 41 42 43 44 45 46 47 48 49 50

000
ASUS43 KFSD 222102
RWRSD

WEATHER ROUNDUP FOR SOUTH DAKOTA
NATIONAL WEATHER SERVICE SIOUX FALLS SD
400 PM CDT MON SEP 22 2014

NOTE: "FAIR" INDICATES FEW OR NO CLOUDS BELOW 12,000 FEET WITH NO
SIGNIFICANT WEATHER AND/OR OBSTRUCTIONS TO VISIBILITY.


SDZ001>005-009-010-012>017-222200-
NORTHWEST AND NORTH CENTRAL SOUTH DAKOTA

CITY           SKY/WX    TMP DP  RH WIND       PRES   REMARKS
FAITH            N/A     79  50  36 S20G28    29.93F
MOBRIDGE       MOSUNNY   81  51  35 S16       29.97F
$$

SDZ012>016-024>037-041>051-057-063-072>074-222200-
SOUTHWEST AND SOUTH CENTRAL SOUTH DAKOTA

CITY           SKY/WX    TMP DP  RH WIND       PRES   REMARKS
RAPID CTY ARPT PTSUNNY   76  48  37 S18       29.94F
PIERRE         PTSUNNY   82  46  28 SE28G36   29.98F
CUSTER         CLOUDY    69  45  41 SW9G16    30.08S
ELLSWORTH AFB  PTSUNNY   76  49  39 S17G25    29.93F
PHILIP         LGT RAIN  80  52  37 S21G29    29.95F
PINE RIDGE     CLOUDY    68  53  58 S21G31    30.02F
WINNER         MOCLDY    77  45  32 S20G28    30.07F
$$

SDZ004>011-016>023-039-040-222200-
NORTHEAST SOUTH DAKOTA

CITY           SKY/WX    TMP DP  RH WIND       PRES   REMARKS
ABERDEEN       SUNNY     75  47  36 S14       30.08F
WATERTOWN      SUNNY     73  46  38 SW15      30.14F
SISSETON         N/A     76  46  34 SW13      30.10F
$$

SDZ017-020-022-023-036>040-048>070-222200-
SOUTHEAST SOUTH DAKOTA

CITY           SKY/WX    TMP DP  RH WIND       PRES   REMARKS
SIOUX FALLS    PTSUNNY   73  47  39 S10       30.17F
HURON          SUNNY     75  46  35 S14       30.10F
CHAMBERLAIN    PTSUNNY   77  50  38 S18G24    30.07F
MITCHELL       MOSUNNY   77  48  35 SE14G22   30.12F
YANKTON        MOSUNNY   73  50  43 S12G17    30.16F
$$

ABBREVIATIONS USED IN REMARKS
   TC - TEMPERATURE IN CELSIUS
  WCI - WIND CHILL INDEX
   HX - HEAT INDEX
  VSB - VISIBILITY



USA.gov is the U.S. government's official web portal to all federal, state and local government web resources and services.